Temp_Advection
nan nan nan nan nan nan nan nan nan nan nan nan nan nan nan nan nan nan nan nan nan nan nan nan nan nan nan nan nan nan nan nan nan nan nan nan nan nan nan nan nan nan nan nan
nan -1 -2 -1 -0 -0 0 0 -0 0 0 -0 -1 -0 -1 -0 1 0 1 0 -0 -0 0 1 1 1 1 0 0 -0 -0 -0 -0 -0 -0 -0 -0 -0 -0 -0 -0 -0 -0 nan
nan -1 -1 -1 -0 0 0 -0 -0 0 0 -0 -0 -2 -0 0 0 0 0 0 0 -0 -0 0 1 1 0 0 0 0 -0 -0 -1 -1 -0 -0 -0 -0 -0 -0 -0 -0 -0 nan
nan -0 0 -0 -0 -0 -0 -0 0 0 -0 -0 -0 -0 -0 0 0 0 -0 0 0 0 -0 -0 1 1 1 0 0 0 -0 -0 -0 -0 -0 -0 -0 -0 -0 -0 -0 -0 -0 nan
nan 0 -0 -1 -1 -0 0 0 0 0 0 -0 -0 -0 -0 0 -0 0 -0 0 0 0 0 -0 0 1 0 0 0 0 -0 -0 -0 -0 -0 -0 -0 -0 -0 -0 -0 -0 -0 nan
nan 0 -1 -2 0 1 0 0 0 0 0 -1 -0 -0 -0 -0 -0 -0 -0 -0 0 0 0 0 0 1 0 0 0 0 0 -0 -0 -0 -0 -0 -0 -0 -0 -0 -0 -0 -0 nan
nan -1 -0 0 0 1 0 -0 -0 -0 -0 -0 0 -0 -1 0 0 0 -0 -0 -0 -0 -0 -0 1 1 0 0 0 0 0 0 -0 -0 -0 -0 -0 -0 -0 -0 -0 -0 -0 nan
nan -0 1 1 0 -0 1 1 -0 -0 -0 -0 -0 -1 0 -0 0 0 0 0 -0 -0 -0 -0 0 1 0 0 0 0 0 0 0 -0 -0 -0 -0 -0 -0 -0 -1 -1 -1 nan
nan -0 -0 0 0 0 0 -0 0 -0 0 -0 -0 -0 0 -0 -0 0 0 0 -0 -0 0 0 0 1 1 0 0 0 0 0 0 -0 -0 -0 -0 -0 -0 -1 -1 -1 -1 nan
nan -0 -0 0 0 0 0 0 0 -0 -0 -0 -0 -0 -0 -0 0 -0 -0 -0 -0 0 0 0 0 1 0 0 0 0 0 0 0 -0 -0 -0 -0 -0 -1 -1 -0 -1 -0 nan
nan -0 -1 -0 -0 -1 -0 0 -0 -0 -0 -0 0 -0 -0 0 -0 0 0 0 0 0 0 0 0 0 0 0 0 0 0 0 0 -0 -0 -0 -0 -1 -1 -1 -0 -0 -0 nan
nan -0 -0 -0 0 -0 -0 -1 -1 -0 0 -0 -0 0 0 0 0 0 0 0 0 0 0 0 0 0 1 0 0 0 0 0 0 -0 -0 -0 -1 -1 -1 -0 -0 -0 -0 nan
nan 0 -0 -0 -0 -0 0 -0 -0 -0 0 -0 -0 -0 -0 -0 -0 -0 0 0 0 0 0 0 0 1 1 1 0 0 0 0 0 -0 -0 -0 -0 -1 -1 -0 -0 -0 -0 nan
nan -0 -0 -0 -0 -1 -0 -0 0 0 -0 -0 -0 0 -0 -0 -0 -0 -0 -0 -0 -0 0 0 0 0 0 0 0 0 0 0 0 -0 -0 -0 -0 -0 -0 -0 -0 -0 -0 nan
nan -0 0 0 0 0 -0 -0 -0 -0 -1 -0 -0 0 -1 0 0 -0 -0 0 -0 -0 0 0 0 0 0 1 0 0 0 0 0 -0 -0 -0 -0 -0 -0 -0 -0 -0 -0 nan
nan 0 0 -0 0 0 0 -0 -0 -0 -0 -0 0 -0 0 0 0 0 0 0 0 0 0 0 1 0 0 0 0 0 0 0 -0 -0 -0 -0 -0 -0 -0 -0 -0 -0 -0 nan
nan 0 -0 0 -0 0 -0 0 -0 -1 -0 0 -0 1 0 0 0 1 1 0 0 0 0 0 0 0 -0 0 0 0 0 0 -0 -0 -0 -0 -0 -0 -0 -0 -0 -0 -0 nan
nan 0 0 0 -0 -0 -0 -0 -0 0 -0 1 0 0 1 1 -0 0 1 0 0 0 0 0 0 -0 0 0 0 0 0 -0 -0 -0 -0 -0 -0 -0 -0 -0 -0 -0 -0 nan
nan 0 0 0 -0 0 0 0 0 0 -0 1 1 0 0 0 -1 -0 0 0 0 0 0 0 0 0 0 0 0 0 0 -0 -0 -0 0 -0 -0 -0 -0 -0 -0 -0 -0 nan
nan -0 -0 0 -0 -0 -0 -0 0 0 0 1 1 0 0 -0 -0 -0 -0 0 0 0 0 0 1 1 1 0 0 0 0 -0 -0 0 0 -0 -0 -0 -0 -0 -0 -0 -0 nan
nan -0 0 -0 -0 -0 -0 0 0 0 -0 0 1 1 1 0 -0 0 0 0 0 0 0 0 0 0 0 0 0 0 -0 -0 0 0 0 0 -0 -0 -0 -0 -0 -0 -0 nan
nan -0 -0 -0 -1 0 0 0 0 -0 0 1 1 0 -0 0 0 0 0 0 0 0 0 0 0 0 0 0 0 -0 0 -0 0 0 -0 -0 0 -0 -0 -0 -0 0 -0 nan
nan 0 -0 -0 0 -0 -0 -0 0 1 -0 -0 0 0 -0 -0 -0 0 0 0 0 0 0 0 0 0 0 0 0 -0 -0 0 -0 0 0 -0 -0 0 0 -0 -0 -0 -0 nan
nan 0 0 0 0 -0 0 0 0 1 0 -0 -0 -0 0 -0 0 0 0 0 0 0 0 0 0 0 0 0 0 -0 -0 0 0 -0 -0 -0 -0 -0 -0 0 -0 -0 -0 nan
nan -0 -0 -0 -0 -0 -0 0 0 0 0 0 0 0 0 0 0 0 0 0 0 0 1 1 1 0 0 0 -0 -0 0 0 0 -0 -0 -0 -0 -0 -0 0 0 -0 -0 nan
nan nan nan nan nan nan nan nan nan nan nan nan nan nan nan nan nan nan nan nan nan nan nan nan nan nan nan nan nan nan nan nan nan nan nan nan nan nan nan nan nan nan nan nan
Wind_Speed
27 10 21 25 24 16 19 18 15 14 10 6 14 19 14 19 16 15 11 11 9 8 8 10 12 14 14 14 16 17 17 16 12 11 10 8 8 7 6 6 6 6 7 8
16 21 22 20 23 22 19 18 16 12 5 7 14 19 17 18 16 12 12 14 15 13 11 13 15 17 18 19 19 18 18 17 15 13 12 11 11 12 10 9 9 10 10 11
22 15 14 23 24 22 16 17 15 12 5 9 10 20 15 7 6 5 7 13 16 18 17 15 17 19 18 19 18 18 17 16 16 15 14 13 13 13 11 9 9 10 10 12
17 16 23 22 26 24 20 12 10 7 4 5 3 5 9 9 6 6 11 16 17 18 18 16 17 18 18 19 18 17 16 16 16 14 13 11 11 10 10 10 10 11 13 15
12 14 16 20 28 25 11 13 11 7 8 4 9 6 4 3 7 8 13 18 19 18 19 18 17 19 19 17 16 15 14 14 14 12 11 10 10 10 10 9 10 13 17 20
14 8 14 23 19 21 12 12 7 4 2 7 11 9 5 3 3 5 14 19 20 20 18 17 20 19 18 16 14 13 11 13 12 10 9 9 9 9 10 12 16 19 21 23
10 14 4 20 19 8 16 16 4 5 5 6 4 7 10 3 2 4 15 21 22 21 20 19 19 19 17 15 13 12 11 11 10 8 7 8 9 10 13 16 19 21 23 24
7 4 10 17 19 10 16 15 4 6 6 6 4 6 1 5 3 4 13 22 23 22 20 19 18 18 17 15 13 11 10 9 8 6 6 6 7 10 14 16 19 21 22 23
9 4 1 3 5 13 5 10 3 2 1 3 5 4 3 3 2 3 13 23 24 24 21 20 19 18 17 15 14 11 9 7 6 4 4 5 8 11 15 18 20 21 21 20
9 2 2 2 7 7 5 7 4 2 5 4 4 3 2 3 2 4 12 23 25 23 21 19 18 18 17 16 13 11 9 6 4 3 3 7 10 13 17 19 20 20 19 19
6 8 8 7 6 12 6 4 2 4 2 2 3 4 3 5 6 4 10 23 24 23 22 20 18 18 18 16 14 11 8 5 3 1 6 10 13 16 18 19 19 18 18 19
8 5 5 5 2 10 10 12 11 4 5 2 3 2 3 5 5 3 9 20 21 22 21 19 19 20 19 17 14 12 8 5 2 3 7 11 15 18 20 19 18 17 18 19
11 7 8 6 3 2 6 11 15 11 2 10 8 3 1 2 3 3 11 20 21 21 20 19 19 19 18 17 15 12 9 5 1 4 8 12 16 19 19 18 17 17 18 19
1 4 11 10 7 11 12 19 17 18 11 10 11 7 5 4 3 6 12 18 20 20 20 19 18 18 17 17 15 12 9 5 3 5 9 12 15 17 18 18 18 18 20 22
4 4 7 4 3 15 19 19 21 22 22 14 15 17 16 10 7 9 13 17 19 19 19 20 20 18 19 18 16 13 9 5 5 8 11 13 17 18 17 17 18 20 22 24
10 3 3 2 2 8 11 19 21 24 22 24 18 16 4 6 10 11 13 17 17 18 18 18 19 18 18 18 15 13 8 5 7 10 12 16 18 18 16 17 20 22 25 26
12 6 3 3 3 4 7 18 19 20 21 21 20 20 10 8 9 12 12 12 12 13 15 18 18 19 18 17 15 11 7 5 9 13 15 17 16 16 17 20 22 25 27 30
12 7 1 1 5 3 2 2 16 22 18 20 17 5 11 11 14 12 9 11 9 9 11 14 17 18 18 17 14 10 5 6 11 15 16 16 15 17 19 22 25 28 29 28
3 2 3 3 8 6 4 5 7 12 14 15 16 8 14 19 18 9 8 8 8 6 8 10 13 16 17 15 12 7 5 8 11 16 15 15 17 19 22 25 28 29 30 29
7 2 1 2 2 5 2 3 6 6 7 13 15 16 18 18 10 6 7 7 6 6 6 9 13 15 15 13 9 6 7 10 14 15 15 16 19 21 24 27 28 29 28 28
4 4 10 4 3 6 1 5 7 6 0 12 17 21 20 9 4 15 10 7 6 6 7 10 12 13 12 9 6 7 8 11 14 14 16 18 20 23 26 28 28 27 28 29
9 7 4 4 6 9 6 5 6 4 12 17 19 17 16 17 15 12 9 8 7 7 9 10 10 10 9 7 6 7 9 12 13 15 17 20 22 25 27 27 27 27 26 27
7 4 3 7 3 2 0 2 1 11 20 13 19 16 18 16 12 11 9 7 6 7 8 9 9 9 8 8 8 7 11 12 14 17 19 21 24 26 25 25 26 26 25 24
2 3 2 4 2 1 2 7 12 16 21 20 18 17 13 13 12 10 7 7 7 8 9 10 10 9 10 9 7 8 12 13 15 17 20 23 25 26 24 26 25 25 23 23
1 9 6 1 1 5 5 11 21 22 21 20 17 14 13 12 10 7 6 6 8 10 11 11 10 9 8 6 7 10 12 13 15 18 22 23 25 25 26 27 25 25 23 21
7 6 5 3 16 3 18 19 22 22 20 16 16 15 12 9 8 7 7 8 9 11 11 11 9 7 7 7 9 10 11 13 17 21 22 24 26 26 28 26 25 21 22 23
Wind_Direction
199 201 221 190 201 202 201 211 215 216 208 240 247 262 263 276 274 252 222 197 169 145 134 124 114 110 104 101 97 91 89 87 96 107 111 116 118 106 96 82 68 53 34 17
182 214 225 196 188 202 215 202 215 235 200 249 263 271 277 270 261 248 220 187 168 150 135 127 122 117 112 101 91 86 82 84 88 95 105 111 111 102 89 75 61 47 28 11
196 205 222 205 192 199 199 198 201 220 180 242 277 276 252 207 191 186 198 181 169 159 146 135 129 121 112 103 93 86 80 79 80 82 86 89 88 89 83 67 45 28 14 5
211 207 204 196 189 191 194 199 193 187 261 245 329 285 242 234 230 206 172 169 164 158 149 142 133 125 117 105 97 89 88 86 85 86 89 91 90 80 65 50 33 17 6 357
206 198 215 188 191 194 204 165 210 233 257 292 225 257 243 188 235 198 174 169 167 162 153 146 140 133 121 112 105 97 93 92 93 91 86 80 74 65 51 33 15 0 352 347
196 249 224 201 185 191 141 142 125 123 233 244 230 231 267 171 83 153 169 172 167 163 157 150 148 139 130 123 114 107 103 101 98 89 82 70 61 49 27 11 1 355 350 346
236 256 238 169 158 168 171 166 145 186 205 240 149 206 257 182 239 154 174 177 172 167 163 159 154 148 140 135 131 127 122 115 103 86 68 55 38 24 10 1 354 347 341 336
207 193 150 168 168 167 187 172 200 184 194 175 191 230 154 82 302 197 194 179 171 170 172 166 161 156 153 151 147 141 136 125 113 89 64 44 24 8 358 353 347 340 335 331
201 294 12 69 124 146 171 200 119 138 69 223 172 231 212 140 76 179 185 175 176 175 175 169 164 164 164 163 159 156 151 140 123 95 60 27 2 353 349 344 341 337 330 330
182 101 163 119 120 45 145 162 169 248 188 214 189 242 178 159 6 143 177 183 177 175 173 171 167 169 171 173 172 169 165 157 135 98 32 3 354 347 344 341 336 331 329 329
289 223 113 145 206 163 154 161 165 293 288 238 162 137 96 302 310 256 186 184 177 175 174 173 172 176 180 182 181 181 178 172 157 47 5 358 351 348 342 335 331 329 329 330
229 210 146 153 67 181 173 171 186 204 181 242 339 122 148 314 310 234 180 179 178 175 176 177 176 182 184 187 189 189 188 185 182 360 2 356 356 350 341 333 328 330 331 331
184 188 138 144 142 125 198 190 203 224 318 204 215 170 99 98 97 126 162 172 173 173 174 176 180 186 188 192 194 195 194 195 253 340 347 354 352 348 337 330 331 332 331 331
231 201 216 197 197 164 193 201 208 201 222 213 225 228 172 167 150 148 163 173 174 176 180 182 184 187 191 195 199 199 197 208 276 329 342 343 342 342 340 338 333 333 332 333
243 243 210 234 157 187 191 195 200 210 219 225 240 232 245 240 197 170 169 172 177 181 185 191 191 190 196 199 199 198 203 228 298 330 337 337 336 334 339 334 331 330 331 333
225 220 185 168 176 211 210 218 212 216 224 232 247 248 268 166 147 154 167 175 186 192 196 196 198 196 196 199 198 201 212 258 319 333 334 333 331 334 334 331 330 332 333 332
206 218 208 214 123 160 248 223 213 220 224 224 232 243 174 171 178 173 167 171 182 189 194 199 197 196 198 196 200 203 225 294 334 333 332 331 333 330 332 332 332 332 331 330
191 207 215 119 140 240 290 5 225 218 226 224 241 230 198 181 147 130 132 138 142 160 180 191 193 195 195 198 199 209 241 311 332 331 328 328 327 331 332 331 331 330 328 327
110 131 159 198 214 308 231 195 169 187 237 221 228 175 145 138 128 103 125 136 139 152 175 190 194 196 196 195 201 217 271 311 332 324 322 325 328 329 330 329 328 328 325 324
106 208 226 162 248 234 40 156 166 166 256 182 175 155 148 153 175 144 147 131 133 147 170 184 185 186 190 194 206 244 293 326 327 320 322 325 327 328 327 326 327 326 323 321
143 151 210 157 230 283 121 136 155 186 68 149 156 151 150 156 76 142 142 140 147 156 169 173 177 183 190 204 231 280 317 324 317 318 321 325 326 326 327 326 326 324 323 322
173 163 183 177 219 257 141 134 205 103 123 135 134 132 119 123 126 135 146 151 155 167 170 175 180 189 205 229 271 305 312 311 316 319 322 324 327 327 326 324 325 324 322 322
184 194 193 208 207 31 312 333 173 147 138 134 130 132 135 136 142 151 157 168 183 192 194 195 200 212 231 256 278 303 311 315 316 318 321 324 325 325 325 323 324 324 325 324
202 169 184 179 170 325 186 136 137 140 136 138 138 140 147 150 156 162 176 195 207 212 211 211 216 228 244 259 278 308 306 309 314 319 323 324 324 325 326 325 324 324 324 323
97 156 152 107 139 129 173 158 148 141 140 142 144 149 155 160 166 184 200 213 217 217 215 214 217 227 244 266 297 296 301 309 316 321 324 326 326 325 324 324 323 322 321 321
190 159 186 200 178 175 173 162 155 149 148 152 158 157 162 176 196 214 221 223 221 215 209 209 213 229 258 271 280 292 305 316 321 324 324 325 326 325 325 323 321 317 315 314
Height
1482 1486 1475 1473 1473 1475 1478 1479 1483 1485 1484 1489 1483 1477 1478 1475 1474 1475 1475 1476 1477 1479 1480 1481 1480 1481 1482 1482 1482 1481 1481 1481 1482 1482 1483 1483 1485 1485 1486 1486 1486 1485 1485 1484
1473 1474 1470 1471 1473 1473 1472 1479 1481 1480 1485 1488 1479 1472 1470 1467 1466 1468 1468 1471 1473 1478 1481 1481 1481 1482 1483 1484 1484 1483 1483 1484 1485 1485 1485 1485 1485 1485 1486 1486 1486 1486 1485 1484
1462 1467 1468 1464 1463 1469 1474 1477 1478 1480 1485 1483 1481 1465 1457 1462 1465 1466 1466 1468 1473 1475 1478 1481 1482 1483 1484 1484 1485 1484 1484 1485 1487 1487 1488 1489 1487 1487 1488 1488 1487 1486 1485 1484
1461 1460 1462 1459 1459 1464 1473 1472 1475 1483 1485 1482 1478 1471 1455 1452 1456 1462 1463 1467 1471 1475 1478 1481 1482 1482 1484 1485 1485 1485 1486 1487 1487 1489 1490 1490 1489 1489 1489 1488 1488 1487 1485 1483
1459 1456 1456 1453 1449 1459 1464 1472 1476 1481 1484 1488 1473 1479 1449 1455 1451 1456 1460 1465 1470 1474 1476 1480 1482 1483 1484 1485 1486 1487 1487 1487 1489 1490 1490 1490 1490 1489 1489 1489 1488 1486 1484 1481
1448 1454 1452 1445 1453 1461 1468 1473 1481 1484 1486 1481 1463 1470 1445 1443 1446 1452 1459 1464 1468 1473 1477 1479 1480 1482 1483 1485 1486 1486 1488 1489 1489 1490 1490 1490 1491 1490 1491 1489 1487 1484 1481 1477
1452 1450 1442 1443 1455 1465 1462 1469 1491 1495 1491 1470 1471 1472 1442 1443 1449 1450 1455 1462 1467 1471 1476 1478 1480 1481 1483 1485 1486 1487 1488 1488 1489 1490 1490 1490 1491 1490 1489 1487 1484 1482 1479 1476
1455 1441 1438 1437 1446 1456 1459 1459 1458 1468 1465 1458 1477 1460 1441 1446 1449 1451 1453 1459 1465 1470 1474 1477 1479 1480 1482 1484 1486 1487 1488 1488 1488 1489 1489 1489 1489 1489 1487 1485 1483 1480 1477 1473
1449 1448 1439 1443 1447 1453 1465 1463 1460 1462 1467 1459 1449 1445 1442 1447 1447 1450 1452 1457 1462 1467 1472 1476 1477 1479 1482 1484 1485 1486 1487 1487 1488 1488 1488 1487 1487 1486 1485 1483 1479 1476 1473 1470
1434 1447 1445 1450 1452 1458 1456 1459 1472 1463 1464 1463 1449 1450 1437 1441 1443 1448 1450 1454 1459 1465 1471 1475 1477 1479 1481 1483 1484 1486 1486 1487 1487 1487 1487 1487 1486 1484 1482 1479 1476 1473 1470 1467
1435 1431 1450 1452 1451 1451 1461 1466 1468 1459 1455 1447 1446 1439 1437 1440 1441 1443 1446 1451 1457 1463 1469 1473 1476 1477 1479 1481 1483 1484 1485 1486 1486 1486 1486 1485 1484 1482 1479 1476 1473 1470 1467 1463
1432 1421 1432 1446 1445 1444 1444 1449 1452 1457 1460 1457 1451 1440 1440 1442 1442 1443 1445 1451 1457 1462 1467 1471 1473 1475 1477 1480 1482 1483 1484 1484 1485 1484 1484 1483 1481 1479 1476 1473 1470 1467 1464 1460
1426 1424 1435 1442 1446 1447 1447 1445 1446 1445 1451 1448 1449 1440 1440 1441 1442 1443 1445 1450 1455 1461 1465 1469 1471 1473 1475 1478 1480 1481 1482 1482 1483 1482 1481 1480 1478 1476 1473 1470 1467 1464 1460 1457
1428 1421 1418 1425 1423 1428 1440 1440 1442 1443 1447 1442 1441 1432 1437 1439 1440 1443 1446 1450 1454 1459 1463 1466 1469 1471 1473 1476 1478 1479 1480 1480 1480 1480 1478 1477 1475 1472 1469 1466 1464 1461 1457 1452
1428 1419 1420 1422 1425 1424 1429 1434 1437 1437 1433 1437 1428 1436 1431 1431 1437 1440 1444 1449 1453 1457 1460 1463 1466 1468 1471 1473 1475 1476 1478 1478 1478 1477 1475 1474 1471 1469 1465 1463 1461 1457 1453 1448
1426 1422 1423 1425 1427 1425 1427 1425 1426 1427 1428 1427 1428 1427 1429 1434 1438 1441 1443 1446 1450 1454 1457 1460 1463 1465 1468 1470 1472 1474 1475 1476 1475 1474 1472 1470 1468 1465 1463 1460 1457 1452 1448 1443
1421 1421 1423 1421 1428 1429 1429 1419 1422 1422 1422 1422 1426 1417 1430 1435 1437 1439 1442 1444 1448 1451 1453 1456 1459 1462 1464 1468 1470 1472 1473 1473 1472 1471 1469 1467 1465 1463 1460 1456 1452 1447 1443 1438
1419 1422 1424 1424 1428 1441 1405 1412 1407 1412 1412 1416 1416 1422 1426 1429 1436 1440 1444 1445 1447 1449 1452 1454 1456 1459 1462 1465 1468 1470 1471 1470 1469 1467 1466 1464 1462 1459 1456 1452 1448 1443 1438 1432
1421 1425 1427 1427 1423 1411 1409 1412 1412 1413 1409 1412 1415 1423 1427 1434 1438 1443 1444 1446 1447 1449 1451 1453 1455 1458 1461 1464 1466 1468 1468 1467 1466 1465 1463 1461 1458 1455 1452 1448 1443 1438 1432 1426
1427 1428 1430 1433 1430 1418 1402 1406 1408 1409 1409 1406 1411 1418 1426 1432 1433 1440 1445 1446 1447 1449 1451 1452 1454 1457 1460 1462 1464 1465 1466 1464 1463 1462 1460 1458 1455 1451 1448 1444 1438 1433 1427 1420
1423 1426 1423 1431 1437 1408 1406 1408 1411 1414 1408 1410 1415 1420 1426 1430 1435 1440 1443 1445 1447 1448 1450 1451 1454 1457 1459 1461 1462 1463 1462 1462 1461 1459 1457 1455 1452 1448 1444 1439 1434 1428 1421 1415
1412 1417 1424 1430 1427 1419 1409 1412 1409 1409 1413 1415 1419 1423 1428 1432 1436 1440 1443 1445 1446 1448 1449 1451 1453 1455 1457 1459 1460 1460 1460 1459 1458 1456 1454 1451 1448 1444 1439 1434 1428 1422 1416 1410
1405 1401 1403 1406 1403 1409 1410 1410 1409 1410 1412 1418 1421 1426 1429 1433 1437 1441 1443 1445 1446 1448 1449 1450 1452 1454 1456 1457 1457 1457 1457 1456 1455 1453 1450 1447 1444 1439 1434 1428 1423 1417 1411 1405
1405 1407 1405 1409 1411 1410 1410 1410 1411 1413 1415 1419 1423 1427 1431 1434 1438 1441 1443 1444 1445 1446 1448 1449 1451 1453 1454 1455 1455 1454 1454 1453 1452 1450 1447 1443 1439 1434 1429 1423 1418 1412 1407 1401
1398 1404 1405 1410 1411 1412 1412 1412 1412 1414 1418 1421 1425 1429 1432 1435 1438 1440 1441 1442 1443 1445 1446 1448 1449 1451 1452 1452 1452 1452 1452 1451 1449 1446 1442 1438 1434 1429 1423 1418 1412 1406 1402 1397
1395 1394 1395 1391 1396 1399 1404 1410 1413 1415 1419 1423 1425 1429 1431 1434 1436 1437 1439 1440 1441 1442 1444 1446 1448 1449 1449 1449 1449 1449 1448 1447 1444 1441 1437 1433 1428 1423 1417 1411 1405 1402 1396 1392